Change the Weather History Date:

Monday, November 5, 2012

  Actual Average Record
Temperature  
Mean Temperature 67 °F -  
Max Temperature 74 °F 71 °F 78 °F (2003)
Min Temperature 60 °F 56 °F 42 °F (2005)
Cooling Degree Days 2    
Growing Degree Days 17 (Base 50)    
Moisture  
Dew Point 60 °F    
Average Humidity 80    
Maximum Humidity 94    
Minimum Humidity 49    
Precipitation  
Precipitation 0.00 in - - ()
Sea Level Pressure  
Sea Level Pressure 30.22 in    
Wind  
Wind Speed 12 mph ()    
Max Wind Speed 23 mph    
Max Gust Speed -    
Visibility 6.2 miles    
Events Rain    
Averages and records for this station are not official NWS values.
T = Trace of Precipitation, MM = Missing Value Source: Averaged Metar Reports

Daily Weather History Graph

Daily Weather History Graph

Search for Another Location

Airport or City:

Trip Planner

Search our weather history database for the weather conditions in past years. The results will help you decide how hot, cold, wet, or windy it might be!

Date:

Astronomy

Nov. 05, 2012 Rise Set
Actual Time 5:59 AM CST 5:32 PM CST
Civil Twilight 5:36 AM CST 5:54 PM CST
Nautical Twilight 5:11 AM CST 6:19 PM CST
Astronomical Twilight 4:45 AM CST 6:45 PM CST
Moon 11:07 PM CST (11/5) 11:16 AM CST (11/5)
Length of Visible Light 12h 17m
Length of Day
11h 33m
Waning Gibbous, 62% of the Moon is Illuminated
Nov 5
Waning Gibbous
Nov 6
Last Quarter
Nov 13
New
Nov 20
First Quarter
Nov 28
Full

Hourly Weather History & Observations

Time (CST) Temp. Dew Point Humidity Pressure Visibility Wind Dir Wind Speed Gust Speed Precip Events Conditions
12:00 AM 64.4 °F 60.8 °F 88% 30.27 in 6.2 mi North 11.5 mph - N/A   Partly Cloudy
1:00 AM 62.6 °F 60.8 °F 94% 30.27 in 6.2 mi North 11.5 mph - N/A   Scattered Clouds
2:00 AM 62.6 °F 60.8 °F 94% 30.24 in 6.2 mi North 11.5 mph - N/A   Scattered Clouds
3:00 AM 62.6 °F 60.8 °F 94% 30.24 in 6.2 mi North 9.2 mph - N/A   Scattered Clouds
4:00 AM 62.6 °F 60.8 °F 94% 30.24 in 6.2 mi North 11.5 mph - N/A   Scattered Clouds
5:00 AM 62.6 °F 59.0 °F 88% 30.24 in 6.2 mi North 11.5 mph - N/A   Partly Cloudy
6:00 AM 62 °F 60 °F 90% 29.95 in 25 mi North 9.2 mph - -   Scattered Clouds
6:00 AM 60.8 °F 59.0 °F 94% 30.24 in 6.2 mi North 9.2 mph - N/A   Partly Cloudy
7:00 AM 62.6 °F 59.0 °F 88% 30.27 in 6.2 mi North 13.8 mph - N/A   Mostly Cloudy
8:00 AM 64.4 °F 59.0 °F 83% 30.27 in 6.2 mi North 11.5 mph - N/A   Mostly Cloudy
9:00 AM 68.0 °F 59.0 °F 73% 30.30 in 6.2 mi NNE 20.7 mph - N/A   Mostly Cloudy
10:00 AM 71.6 °F 59.0 °F 64% 30.30 in 6.2 mi North 20.7 mph - N/A   Mostly Cloudy
11:00 AM 71.6 °F 59.0 °F 64% 30.27 in 6.2 mi North 23.0 mph - N/A   Mostly Cloudy
12:00 PM 73 °F 58 °F 49% 29.93 in 25 mi North 20.7 mph - -   Overcast
12:00 PM 73.4 °F 57.2 °F 57% 30.24 in 6.2 mi North 20.7 mph - N/A   Mostly Cloudy
1:00 PM 71.6 °F 59.0 °F 64% 30.24 in 6.2 mi NE 13.8 mph - N/A   Mostly Cloudy
2:00 PM 69.8 °F 60.8 °F 73% 30.21 in 6.2 mi North 23.0 mph - N/A   Scattered Clouds
3:00 PM 71.6 °F 60.8 °F 69% 30.18 in 6.2 mi North 18.4 mph - N/A   Mostly Cloudy
4:00 PM 69.8 °F 60.8 °F 73% 30.21 in 6.2 mi North 16.1 mph - N/A   Scattered Clouds
4:33 PM - - N/A% - 6.2 mi North 20.7 mph - N/A Rain Rain
4:43 PM - - N/A% - 6.2 mi North 18.4 mph - N/A   Partly Cloudy
5:00 PM 66.2 °F 59.0 °F 78% 30.21 in 6.2 mi North 18.4 mph - N/A   Mostly Cloudy
6:00 PM 66 °F 61 °F 78% 29.95 in 25 mi North 11.5 mph - -   Partly Cloudy
6:00 PM 66.2 °F 60.8 °F 83% 30.24 in 6.2 mi North 11.5 mph - N/A   Mostly Cloudy
7:00 PM 66.2 °F 60.8 °F 83% 30.24 in 6.2 mi NNE 11.5 mph - N/A   Scattered Clouds
8:00 PM 64.4 °F 60.8 °F 88% 30.27 in 6.2 mi NNE 11.5 mph - N/A   Mostly Cloudy
9:00 PM 64.4 °F 60.8 °F 88% 30.30 in 6.2 mi North 13.8 mph - N/A   Scattered Clouds
10:00 PM 64.4 °F 60.8 °F 88% 30.30 in 6.2 mi North 11.5 mph - N/A   Mostly Cloudy
11:00 PM 62.6 °F 60.8 °F 94% 30.30 in 6.2 mi NNE 13.8 mph - N/A   Scattered Clouds